• en France
  • Liste des pays
  • À 7 jours
  • Température de l'eau
  • Carte satellitaire
  • Carte météo
  • Widgets météo
  • user-avatar
    Se connecter

    Météo par heure à Djambala

    Ce jour, 24 Mai, Jeudi

    Heure Température Précipitation Vent Pression Humidité
    00:00 +23°C° 0 mm 2 m/s 696 mmHg 90%
    01:00 +23°C° 0 mm 2 m/s 695 mmHg 92%
    02:00 +23°C° 0 mm 2 m/s 695 mmHg 93%
    03:00 +23°C° 0 mm 1 m/s 695 mmHg 94%
    04:00 +22°C° 0 mm 1 m/s 695 mmHg 95%
    05:00 +23°C° 0 mm 2 m/s 695 mmHg 94%
    06:00 +23°C° 0 mm 2 m/s 695 mmHg 93%
    07:00 +23°C° 0 mm 2 m/s 696 mmHg 92%
    08:00 +25°C° 0 mm 2 m/s 696 mmHg 84%
    09:00 +27°C° 0 mm 2 m/s 696 mmHg 76%
    10:00 +28°C° 0 mm 2 m/s 697 mmHg 68%
    11:00 +30°C° 0,8 mm 2 m/s 696 mmHg 63%
    12:00 +31°C° 0,8 mm 2 m/s 696 mmHg 59%
    13:00 +32°C° 0,8 mm 1 m/s 696 mmHg 54%
    14:00 +31°C° 0,1 mm 1 m/s 695 mmHg 55%
    15:00 +31°C° 0,1 mm 1 m/s 694 mmHg 56%
    16:00 +30°C° 0,1 mm 1 m/s 694 mmHg 57%
    17:00 +29°C° 0,3 mm 1 m/s 694 mmHg 63%
    18:00 +27°C° 0,3 mm 1 m/s 694 mmHg 69%
    19:00 +26°C° 0,3 mm 1 m/s 694 mmHg 75%
    20:00 +25°C° 0,3 mm 1 m/s 694 mmHg 78%
    21:00 +25°C° 0,3 mm 2 m/s 694 mmHg 81%
    22:00 +24°C° 0,3 mm 2 m/s 695 mmHg 84%
    23:00 +24°C° 0,1 mm 2 m/s 694 mmHg 86%

    Demain, 25 Mai, Vendredi

    Heure Température Précipitation Vent Pression Humidité
    00:00 +24°C° 0,1 mm 2 m/s 694 mmHg 88%
    01:00 +23°C° 0,1 mm 2 m/s 694 mmHg 90%
    02:00 +23°C° 0 mm 2 m/s 694 mmHg 91%
    03:00 +23°C° 0 mm 1 m/s 693 mmHg 92%
    04:00 +23°C° 0 mm 1 m/s 693 mmHg 94%
    05:00 +23°C° 0,1 mm 1 m/s 693 mmHg 93%
    06:00 +23°C° 0,1 mm 2 m/s 694 mmHg 93%
    07:00 +23°C° 0,1 mm 2 m/s 694 mmHg 92%
    08:00 +25°C° 0,5 mm 2 m/s 695 mmHg 86%
    09:00 +26°C° 0,5 mm 2 m/s 696 mmHg 80%
    10:00 +27°C° 0,5 mm 3 m/s 696 mmHg 74%
    11:00 +28°C° 0,3 mm 3 m/s 696 mmHg 69%
    12:00 +29°C° 0,3 mm 3 m/s 695 mmHg 63%
    13:00 +30°C° 0,3 mm 2 m/s 695 mmHg 57%
    14:00 +30°C° 0,6 mm 2 m/s 694 mmHg 59%
    15:00 +30°C° 0,6 mm 2 m/s 694 mmHg 60%
    16:00 +30°C° 0,6 mm 2 m/s 693 mmHg 61%
    17:00 +28°C° 0,4 mm 2 m/s 693 mmHg 67%
    18:00 +27°C° 0,4 mm 1 m/s 693 mmHg 73%
    19:00 +25°C° 0,4 mm 1 m/s 694 mmHg 80%
    20:00 +25°C° 0 mm 1 m/s 694 mmHg 82%
    21:00 +24°C° 0 mm 2 m/s 694 mmHg 85%
    22:00 +24°C° 0 mm 2 m/s 695 mmHg 88%
    23:00 +24°C° 0,1 mm 2 m/s 694 mmHg 89%

    Après-demain, 26 Mai, Samedi

    Heure Température Précipitation Vent Pression Humidité
    00:00 +23°C° 0,1 mm 2 m/s 694 mmHg 90%
    01:00 +23°C° 0,1 mm 2 m/s 694 mmHg 91%
    02:00 +23°C° 0 mm 2 m/s 694 mmHg 91%
    03:00 +23°C° 0 mm 1 m/s 693 mmHg 92%
    04:00 +22°C° 0 mm 1 m/s 693 mmHg 92%
    05:00 +23°C° 0,2 mm 1 m/s 694 mmHg 91%
    06:00 +23°C° 0,2 mm 2 m/s 694 mmHg 91%
    07:00 +23°C° 0,2 mm 2 m/s 695 mmHg 90%
    08:00 +24°C° 0,1 mm 2 m/s 695 mmHg 82%
    09:00 +26°C° 0,1 mm 2 m/s 696 mmHg 75%
    10:00 +28°C° 0,1 mm 2 m/s 696 mmHg 68%
    11:00 +29°C° 0,5 mm 2 m/s 696 mmHg 64%
    12:00 +30°C° 0,5 mm 2 m/s 695 mmHg 60%
    13:00 +31°C° 0,5 mm 1 m/s 695 mmHg 56%
    14:00 +31°C° 0,3 mm 1 m/s 694 mmHg 56%
    15:00 +30°C° 0,3 mm 2 m/s 694 mmHg 57%
    16:00 +30°C° 0,3 mm 2 m/s 693 mmHg 57%
    17:00 +29°C° 0,5 mm 1 m/s 694 mmHg 64%
    18:00 +27°C° 0,5 mm 1 m/s 694 mmHg 71%
    19:00 +25°C° 0,5 mm 1 m/s 695 mmHg 79%
    20:00 +25°C° 0,5 mm 1 m/s 695 mmHg 81%
    21:00 +25°C° 0,5 mm 1 m/s 695 mmHg 83%
    22:00 +24°C° 0,5 mm 1 m/s 696 mmHg 85%
    23:00 +24°C° 0,1 mm 1 m/s 695 mmHg 86%

    27 Mai, Dimanche

    Heure Température Précipitation Vent Pression Humidité
    00:00 +24°C° 0,1 mm 1 m/s 695 mmHg 87%
    01:00 +23°C° 0,1 mm 1 m/s 695 mmHg 88%
    02:00 +23°C° 0 mm 1 m/s 694 mmHg 88%
    03:00 +23°C° 0 mm 1 m/s 694 mmHg 89%
    04:00 +23°C° 0 mm 1 m/s 694 mmHg 89%
    05:00 +23°C° 0 mm 1 m/s 695 mmHg 89%
    06:00 +23°C° 0 mm 1 m/s 695 mmHg 88%
    07:00 +23°C° 0 mm 1 m/s 695 mmHg 87%
    08:00 +25°C° 0 mm 1 m/s 696 mmHg 80%
    09:00 +27°C° 0 mm 1 m/s 697 mmHg 72%
    10:00 +29°C° 0 mm 1 m/s 697 mmHg 65%
    11:00 +30°C° 0,1 mm 1 m/s 697 mmHg 60%
    12:00 +31°C° 0,1 mm 1 m/s 696 mmHg 55%
    13:00 +31°C° 0,1 mm 0 m/s 696 mmHg 50%
    14:00 +30°C° 0 mm 0 m/s 695 mmHg 51%
    15:00 +29°C° 0 mm 0 m/s 695 mmHg 52%
    16:00 +29°C° 0 mm 0 m/s 694 mmHg 53%
    17:00 +28°C° 0 mm 0 m/s 695 mmHg 57%
    18:00 +28°C° 0 mm 1 m/s 695 mmHg 61%
    19:00 +27°C° 0 mm 1 m/s 695 mmHg 64%
    20:00 +26°C° 0 mm 1 m/s 696 mmHg 68%
    21:00 +26°C° 0 mm 1 m/s 696 mmHg 71%
    22:00 +25°C° 0 mm 1 m/s 696 mmHg 75%
    23:00 +25°C° 0,1 mm 1 m/s 696 mmHg 77%

    28 Mai, Lundi

    Heure Température Précipitation Vent Pression Humidité
    00:00 +24°C° 0,1 mm 1 m/s 696 mmHg 79%
    01:00 +24°C° 0,1 mm 1 m/s 695 mmHg 82%
    02:00 +24°C° 0,5 mm 1 m/s 695 mmHg 83%
    03:00 +23°C° 0,5 mm 1 m/s 695 mmHg 85%
    04:00 +23°C° 0,5 mm 1 m/s 695 mmHg 86%
    05:00 +23°C° 0,1 mm 2 m/s 696 mmHg 87%
    06:00 +23°C° 0,1 mm 2 m/s 696 mmHg 88%
    07:00 +23°C° 0,1 mm 2 m/s 697 mmHg 89%
    08:00 +24°C° 0 mm 2 m/s 697 mmHg 86%
    09:00 +25°C° 0 mm 3 m/s 697 mmHg 82%
    10:00 +26°C° 0 mm 3 m/s 697 mmHg 78%
    11:00 +27°C° 1,1 mm 3 m/s 697 mmHg 74%
    12:00 +28°C° 1,1 mm 3 m/s 696 mmHg 70%
    13:00 +29°C° 1,1 mm 3 m/s 696 mmHg 65%
    14:00 +29°C° 0,9 mm 2 m/s 695 mmHg 65%
    15:00 +28°C° 0,9 mm 2 m/s 695 mmHg 65%
    16:00 +28°C° 0,9 mm 2 m/s 695 mmHg 64%
    17:00 +27°C° 1,1 mm 2 m/s 695 mmHg 71%
    18:00 +25°C° 1,1 mm 2 m/s 696 mmHg 78%
    19:00 +24°C° 1,1 mm 1 m/s 696 mmHg 85%
    20:00 +24°C° 0,1 mm 1 m/s 696 mmHg 86%
    21:00 +23°C° 0,1 mm 2 m/s 696 mmHg 88%
    22:00 +23°C° 0,1 mm 2 m/s 697 mmHg 89%
    23:00 +23°C° 0 mm 2 m/s 696 mmHg 90%

    29 Mai, Mardi

    Heure Température Précipitation Vent Pression Humidité
    00:00 +23°C° 0 mm 2 m/s 696 mmHg 92%
    01:00 +21°C° 0 mm 2 m/s 695 mmHg 93%
    02:00 +21°C° 0 mm 2 m/s 695 mmHg 93%
    03:00 +21°C° 0 mm 2 m/s 695 mmHg 94%
    04:00 +21°C° 0 mm 2 m/s 695 mmHg 94%
    05:00 +21°C° 0 mm 2 m/s 695 mmHg 93%
    06:00 +21°C° 0 mm 2 m/s 696 mmHg 93%
    07:00 +21°C° 0 mm 2 m/s 696 mmHg 92%
    08:00 +24°C° 0 mm 2 m/s 697 mmHg 84%
    09:00 +26°C° 0 mm 2 m/s 697 mmHg 77%
    10:00 +27°C° 0 mm 3 m/s 698 mmHg 70%
    11:00 +28°C° 0 mm 2 m/s 697 mmHg 64%
    12:00 +30°C° 0 mm 2 m/s 696 mmHg 59%
    13:00 +31°C° 0 mm 2 m/s 696 mmHg 53%
    14:00 +31°C° 0 mm 2 m/s 695 mmHg 53%
    15:00 +31°C° 0 mm 1 m/s 695 mmHg 53%
    16:00 +31°C° 0 mm 1 m/s 695 mmHg 53%
    17:00 +29°C° 0,4 mm 1 m/s 695 mmHg 59%
    18:00 +28°C° 0,4 mm 1 m/s 695 mmHg 66%
    19:00 +26°C° 0,4 mm 2 m/s 695 mmHg 72%
    20:00 +26°C° 0 mm 2 m/s 695 mmHg 75%
    21:00 +25°C° 0 mm 2 m/s 695 mmHg 77%
    22:00 +25°C° 0 mm 2 m/s 696 mmHg 79%
    23:00 +24°C° 0 mm 1 m/s 695 mmHg 80%
    Voir plus